Location: Hackbridge
(51.3833°N, 0.1500°W)
Time: 02:54:24
(UTC+00:00)

STARLINK-64 - Pass Details

Date: 13 October 2019
Orbit: 545 x 555 km, 53.0° (Epoch: 22 November)

Event Time Altitude Azimuth Distance (km) Brightness Sun altitude
Rises 19:31:08 0° 246° (WSW) 2,727 7.9 -22.3°
Reaches altitude 10° 19:33:22 10° 246° (WSW) 1,835 6.9 -22.6°
Enters shadow 19:37:15 74° 209° (SSW) 582 3.6 -23.2°
